Regional Weather Roundup
Issued by NWS

Home | Current Version | Previous Version | Graphics & Text | Print | Product List | Glossary On
Versions: 1 2 3 4 5 6 7 8 9 10 11 12 13 14 15 16 17 18 19 20 21 22 23 24 25 26 27
000
ASUS45 KSLC 280810
RWRUT

UTAH REGIONAL WEATHER ROUNDUP
NATIONAL WEATHER SERVICE SALT LAKE CITY UT
200 AM MDT THU JUL 28 2016

UTZ001>011-023>025-280900-

NORTHERN UTAH

CITY           SKY/WX    TMP DP  RH WIND       PRES   REMARKS
BRIGHAM CITY     N/A     69  42  37 CALM      30.04S
HILL AFB       CLEAR     74  34  23 E17       30.07S
LOGAN          CLEAR     59  48  67 CALM      30.07S
OGDEN          CLEAR     73  35  25 S9        30.04S
PROVO AIRPORT  CLEAR     66  39  37 SE7       30.07S
SALT LAKE CITY CLEAR     79  34  19 S9        30.02S
VERNAL         CLEAR     65  32  29 W7        30.13S
WENDOVER       CLEAR     86  28  12 NW10      30.04S
HEBER CITY     CLEAR     54  37  54 E3        30.18S

$$

UTZ012>022-026-027-280900-

SOUTHERN/CENTRAL UTAH

CITY           SKY/WX    TMP DP  RH WIND       PRES   REMARKS
BLANDING       CLEAR     74  31  20 N10       30.23F
BRYCE CANYON   CLEAR     56  34  43 W10       30.36F
CEDAR CITY     CLEAR     73  32  22 S8        30.15S
DELTA          CLEAR     73  28  19 CALM      30.06S
MILFORD        CLEAR     69  23  17 W8        30.08F
MOAB/CYNLANDS  CLEAR     78  27  15 CALM      30.04S
PRICE          CLEAR     67  20  16 N5        30.18S
ST GEORGE      SUNNY     91  37  15 CALM      29.92R

$$

REGIONAL REPORTS     COLORADO/ARIZONA

CITY           SKY/WX    TMP DP  RH WIND       PRES   REMARKS
CRAIG, CO      CLOUDY    46  33  60 CALM      30.24R
GRAND JUNCTION CLEAR     72  33  24 SE10      30.09S
RIFLE          CLEAR     62  35  36 E3        30.18S
MONTROSE       CLEAR     68  36  30 SE9       30.20S
CORTEZ         CLEAR     60  38  43 NE8       30.19S
PAGE, AZ       MOCLDY    88  30  12 SW7       30.01S
GRAND CANYON   PTCLDY    58  41  53 NE3       30.27F HAZE
KINGMAN        PTCLDY    81  48  31 E7        29.97F
FLAGSTAFF      CLEAR     63  46  54 CALM      30.29S

$$

REGIONAL REPORTS    NEVADA/IDAHO/WYOMING

CITY           SKY/WX    TMP DP  RH WIND       PRES   REMARKS
LAS VEGAS, NV  PTCLDY    99  44  15 SW7       29.79S HX  95
ELY            PTCLDY    62  27  26 SE5       30.22S
ELKO           CLEAR     69  27  20 N6        30.14R
POCATELLO, ID  CLEAR     63  40  42 S10       30.08R
BURLEY         CLEAR     63  48  58 SW5       30.05R
EVANSTON, WY   CLOUDY    64  25  22 SE8       30.29F
ROCK SPRINGS   CLOUDY    67  21  17 W7        30.25F
KEMMERER         N/A     55  28  35 NW12      30.30F

$$




USA.gov is the U.S. government's official web portal to all federal, state and local government web resources and services.